Regional Weather Roundup
Issued by NWS

Home | Current Version | Previous Version | Text Only | Print | Product List | Glossary On
Versions: 1 2 3 4 5 6 7 8 9 10 11 12 13 14 15 16 17 18 19 20 21 22 23 24 25 26 27 28 29 30 31 32 33 34 35 36 37 38 39 40 41 42 43 44 45 46 47 48 49 50
000
ASUS45 KABQ 310701
RWRNM
NEW MEXICO REGIONAL WEATHER ROUNDUP
NATIONAL WEATHER SERVICE ALBUQUERQUE NM
100 AM MDT SAT JUL 31 2021

NOTE: "FAIR" MEANS FEW OR NO CLOUDS BELOW 12,000 FEET AGL WITH NO
       SIGNIFICANT WEATHER OR OBSTRUCTIONS TO VISION.

      THIS PRODUCT IS RELEASED AS TWO VERSIONS.  ONE VERSION NEAR
      THE TOP OF THE HOUR CONTAINING PRELIMINARY DATA FROM ALBUQUERQUE
      AND OTHER STATIONS.  A FINAL VERSION WITH ADDITIONAL DATA IS
      ISSUED ABOUT 10 MINUTES AFTER THE HOUR.

NMZ201-203-204-210>218-310800-
NORTHWEST PLATEAU/NORTHCENTRAL MOUNTAINS

CITY           SKY/WX    TMP DP  RH WIND       PRES   REMARKS
FARMINGTON     FAIR      70  52  52 E9        30.26F
SANTA FE       FAIR      61  50  67 N6        30.35S
TAOS           FAIR      53  46  77 CALM      30.43R
ANGEL FIRE     FAIR      44  43  95 CALM      30.52S

$$
NMZ202-205>209-241-402-403-310800-
WESTCENTRAL MOUNTAINS/SOUTHWEST MOUNTAINS

CITY           SKY/WX    TMP DP  RH WIND       PRES   REMARKS
GALLUP         FAIR      59  57  93 NE6       30.37R
GRANTS         FAIR      64  53  69 CALM      30.38S
SILVER CITY    FAIR      61  53  73 NW3       30.29R

$$
NMZ407-409-411-412-310800-
SOUTHERN DESERTS

CITY           SKY/WX    TMP DP  RH WIND       PRES   REMARKS
DEMING         CLOUDY    73  53  49 CALM      30.21F
LAS CRUCES     FAIR      74  50  42 W3        30.23S
ALAMOGORDO     FAIR      72  52  49 SE10      30.20R
T OR C         FAIR      76  51  41 SW7       30.23R

$$
NMZ219>223-310800-
CENTRAL VALLEYS/CENTRAL HIGHLANDS

CITY           SKY/WX    TMP DP  RH WIND       PRES   REMARKS
ALBUQUERQUE    FAIR      75  47  36 SE5       30.28R
DOUBLE EAGLE   FAIR      64  50  60 SW5       30.31S
MORIARTY ARPT  FAIR      60  53  77 NW6       30.35S
CLINES CORNERS FAIR      59  48  67 W9        30.41S
BELEN          PTSUNNY   71  45  39 CALM      30.27R
SOCORRO        FAIR      69  49  49 S7        30.24R

$$
NMZ224>226-239-240-310800-
SOUTHCENTRAL MOUNTAINS

CITY           SKY/WX    TMP DP  RH WIND       PRES   REMARKS
RUIDOSO        CLOUDY    64  50  59 SW5       30.41F

$$
NMZ227>231-310800-
NORTHEAST HIGHLANDS/NORTHEAST PLAINS

CITY           SKY/WX    TMP DP  RH WIND       PRES   REMARKS
LAS VEGAS      FAIR      62  48  60 S13       30.37S
RATON          FAIR      62  44  51 NW6       30.30R
CLAYTON        FAIR      70  50  49 SW9       30.20S

$$
NMZ232>237-310800-
EASTCENTRAL PLAINS

CITY           SKY/WX    TMP DP  RH WIND       PRES   REMARKS
SANTA ROSA     FAIR      72  55  54 SW6       30.24S
TUCUMCARI      FAIR      77  58  51 S12       30.16S
CANNON AFB     FAIR      67  62  83 E7        30.22F
CLOVIS AIRPORT FAIR      68  62  81 S8        30.23F

$$
NMZ028-029-033-238-310800-
SOUTHEAST PLAINS

CITY           SKY/WX    TMP DP  RH WIND       PRES   REMARKS
ROSWELL        FAIR      74  62  66 CALM      30.17S
ARTESIA        FAIR      73  66  78 N6        30.18S
CARLSBAD       FAIR      73  61  65 N3        30.12F
HOBBS          FAIR      68  63  83 N6        30.17F


$$



USA.gov is the U.S. government's official web portal to all federal, state and local government web resources and services.